Location: Campillo
(40.8621°N, 4.2488°W)
Time: 05:32:56
(UTC+00:00)

X-37B - Pass Details

Date: 03 August 2021
Orbit: 381 x 393 km, 45.0° (Epoch: 29 August)

Event Time Altitude Azimuth Distance (km) Brightness Sun altitude
Exits shadow 03:12:16 43° 122° (ESE) 549 1.3 -19.7°
Drops below altitude 10° 03:14:52 10° 76° (ENE) 1,396 4.2 -19.4°
Sets 03:16:58 0° 71° (ENE) 2,252 5.6 -19.1°
